Date,TemperatureHighF,TemperatureAvgF,TemperatureLowF,DewpointHighF,DewpointAvgF,DewpointLowF,HumidityHigh,HumidityAvg,HumidityLow,PressureMaxIn,PressureMinIn,WindSpeedMaxMPH,WindSpeedAvgMPH,GustSpeedMaxMPH,PrecipitationSumIn
2013-1-1,48.2,38.3,28.0,29.8,23.6,15.3,89,60,30,29.96,29.91,8,2,8,0.00
2013-1-2,52.9,38.9,32.5,33.0,27.2,18.5,83,64,41,29.95,29.85,4,0,4,0.00
2013-1-3,49.8,37.0,30.2,34.6,29.1,24.6,84,74,48,29.97,29.86,3,1,3,0.00
2013-1-4,52.0,38.8,32.2,37.0,30.9,25.8,87,74,47,29.99,29.90,2,1,2,0.00
2013-1-5,50.9,40.1,34.0,38.2,34.2,30.2,90,80,59,29.96,29.80,7,1,7,0.00
2013-1-6,47.5,39.5,32.7,42.8,37.4,31.3,100,92,78,29.88,29.80,6,0,6,0.06
2013-1-7,54.3,41.5,32.2,45.0,38.1,31.0,97,88,68,29.92,29.85,3,1,3,0.00
2013-1-8,57.4,45.3,37.9,47.5,41.6,36.5,97,88,62,29.94,29.84,3,1,3,0.01
2013-1-9,46.0,39.8,33.1,42.3,37.9,31.9,97,93,85,29.88,29.60,9,1,9,0.35
2013-1-10,36.9,31.6,27.3,34.0,29.5,25.9,100,92,75,29.80,29.67,4,0,4,0.01
2013-1-11,37.9,30.3,24.8,30.7,26.6,21.5,94,86,72,29.87,29.79,4,0,4,0.00
2013-1-12,39.7,29.3,20.8,23.8,20.3,16.3,84,70,47,29.87,29.79,4,1,4,0.00
2013-1-13,39.7,29.8,22.8,19.7,15.7,6.6,77,57,35,29.93,29.84,6,1,6,0.00
2013-1-14,45.0,34.1,27.0,24.5,15.5,6.9,72,48,26,30.06,29.93,6,1,6,0.00
2013-1-15,54.5,38.8,30.2,36.6,30.1,23.5,82,71,49,30.14,30.05,4,1,4,0.00
2013-1-16,61.2,44.3,35.4,34.6,28.9,15.6,71,57,17,30.14,30.00,5,1,5,0.00
2013-1-17,66.4,49.5,36.5,27.9,20.7,3.9,63,35,12,30.01,29.91,4,2,4,0.00
2013-1-18,60.3,44.8,36.1,34.6,25.5,12.8,71,49,17,29.98,29.91,4,1,4,0.00
2013-1-19,60.3,45.4,36.3,36.3,26.6,16.4,69,50,21,30.00,29.91,3,1,3,0.00
2013-1-20,60.8,45.4,36.1,37.7,27.2,17.9,66,50,19,29.98,29.87,3,1,3,0.00
2013-1-21,59.9,44.7,35.6,38.3,29.5,22.6,76,57,27,29.92,29.86,3,1,3,0.00
2013-1-22,59.7,46.0,37.6,37.3,28.8,20.5,70,53,22,29.90,29.79,5,1,5,0.00
2013-1-23,54.5,48.3,44.4,46.7,33.9,21.9,96,62,28,29.87,29.73,7,1,7,0.69
2013-1-24,54.3,49.5,45.9,51.8,48.3,45.1,100,96,88,29.93,29.82,3,0,3,0.06
2013-1-25,55.2,50.5,47.1,53.1,49.5,46.9,100,96,90,29.92,29.77,4,0,4,0.02
2013-1-26,49.3,46.3,37.8,49.0,45.9,37.2,100,99,95,29.77,29.65,5,0,5,0.19
2013-1-27,44.1,37.3,33.3,39.9,34.8,30.8,100,91,65,29.83,29.70,4,0,4,0.01
2013-1-28,46.8,38.1,31.3,37.0,32.9,29.0,93,82,63,29.94,29.81,7,1,7,0.00
2013-1-29,52.0,40.3,32.2,41.4,35.5,29.9,94,84,58,30.06,29.94,5,1,5,0.00
2013-1-30,60.1,45.4,36.9,43.6,38.4,34.8,93,79,39,30.06,29.98,4,1,4,0.02
2013-1-31,56.7,44.1,35.8,45.1,38.5,32.2,92,81,59,30.01,29.93,4,1,4,0.00
2013-2-1,60.3,45.4,35.1,45.3,37.5,30.7,91,75,46,29.97,29.90,4,1,4,0.00
2013-2-2,61.0,46.8,39.2,45.9,39.4,34.5,86,76,46,30.01,29.94,4,1,4,0.00
2013-2-3,59.0,45.8,35.8,46.0,39.1,32.6,89,78,55,29.95,29.85,4,1,4,0.00
2013-2-4,59.4,46.1,37.0,47.0,37.0,31.0,84,71,51,29.88,29.79,4,1,4,0.00
2013-2-5,52.5,43.8,37.4,44.6,38.8,31.4,94,82,70,29.85,29.73,5,1,5,0.00
2013-2-6,52.5,41.3,31.3,39.3,34.9,29.4,95,79,56,29.86,29.79,7,1,7,0.00
2013-2-7,43.2,39.0,35.1,38.6,35.8,32.6,97,89,75,29.81,29.66,9,1,9,0.58
2013-2-8,45.3,36.8,31.3,37.7,32.1,25.2,100,85,50,29.70,29.63,4,1,4,0.06
2013-2-9,48.7,36.6,27.9,32.9,27.1,22.5,84,70,42,29.80,29.68,4,1,4,0.00
2013-2-10,52.2,39.6,30.6,37.1,30.2,24.3,86,70,46,29.84,29.75,6,1,6,0.00
2013-2-11,54.0,40.7,31.1,37.3,28.8,23.5,78,64,39,29.96,29.83,5,1,5,0.00
2013-2-12,52.9,40.6,32.2,38.9,32.4,22.8,89,73,51,30.05,29.95,5,1,5,0.00
2013-2-13,61.0,45.6,34.2,44.1,36.7,30.7,90,74,41,30.03,29.93,4,1,4,0.00
2013-2-14,61.7,52.0,41.9,36.8,29.1,22.6,78,45,29,29.99,29.94,8,3,8,0.00
2013-2-15,63.9,53.1,42.1,41.9,33.3,22.2,80,49,28,30.02,29.97,5,1,5,0.00
2013-2-16,62.4,47.7,37.9,42.7,36.4,29.9,82,67,33,30.01,29.78,4,1,4,0.00
2013-2-17,58.5,44.8,35.8,41.5,35.4,31.8,88,72,41,29.79,29.70,5,1,5,0.00
2013-2-18,54.5,44.2,36.7,41.3,36.3,31.8,86,75,46,29.73,29.59,9,2,9,0.00
2013-2-19,41.7,35.6,30.6,37.4,32.9,28.9,95,90,82,29.59,29.41,9,1,9,0.01
2013-2-20,45.5,34.6,28.0,39.3,31.6,26.4,100,89,62,29.70,29.50,4,1,4,0.21
2013-2-21,48.6,37.8,28.9,33.4,29.2,25.3,91,73,49,29.86,29.69,7,1,7,0.02
2013-2-22,54.1,42.6,32.4,39.1,33.3,27.4,84,71,46,29.93,29.79,8,1,8,0.00
2013-2-23,50.2,42.0,32.7,37.2,25.2,9.5,87,55,21,29.95,29.78,8,1,8,0.00
2013-2-24,55.0,40.6,29.8,31.7,23.6,11.7,72,53,24,29.96,29.88,4,1,4,0.00
2013-2-25,53.6,42.1,33.8,31.7,26.6,17.9,75,56,27,29.97,29.88,6,2,6,0.00
2013-2-26,59.2,43.5,34.3,33.4,23.3,9.2,65,47,15,29.94,29.88,5,2,5,0.00
2013-2-27,59.5,45.3,35.2,35.8,27.9,21.4,69,53,25,30.08,29.93,6,1,6,0.00
2013-2-28,61.2,48.0,36.9,43.2,36.5,28.7,85,66,40,30.16,30.06,4,1,4,0.00
2013-3-1,65.8,50.7,39.0,47.2,41.9,35.5,88,74,47,30.15,30.00,5,1,5,0.00
2013-3-2,65.3,52.9,44.8,49.9,44.7,41.1,90,75,45,30.02,29.82,6,1,6,0.00
2013-3-3,54.5,48.9,42.1,51.4,46.7,40.5,100,92,82,29.83,29.75,4,0,4,0.38
2013-3-4,57.9,46.2,37.6,52.2,42.8,37.1,100,89,63,29.83,29.74,7,1,7,0.00
2013-3-5,52.7,47.6,39.6,43.7,37.7,31.0,90,70,46,29.74,29.51,15,2,15,0.39
2013-3-6,45.1,41.1,37.8,40.0,38.4,35.4,100,90,79,29.73,29.47,20,4,20,0.76
2013-3-7,49.1,40.3,33.3,48.8,39.7,32.5,100,99,96,30.17,30.00,2,0,2,0.12
2013-3-8,55.8,47.1,34.0,39.8,33.5,18.0,96,62,35,30.18,29.89,5,1,5,0.01
2013-3-9,60.4,45.3,33.8,38.0,32.3,26.4,91,64,30,30.40,30.10,4,1,4,0.00
2013-3-10,43.9,39.9,33.3,39.8,31.0,18.0,100,71,46,30.40,29.67,4,1,4,0.01
2013-3-11,65.7,50.3,37.0,46.9,38.0,29.0,85,64,39,29.92,29.78,4,1,4,0.00
2013-3-12,68.0,52.6,40.8,49.9,44.2,36.8,91,75,46,29.83,29.77,4,1,4,0.00
2013-3-13,70.2,52.3,44.4,51.7,44.7,35.6,91,79,29,29.86,29.80,4,1,4,0.00
2013-3-14,69.1,56.4,46.6,51.0,43.9,37.5,82,65,36,29.84,29.78,4,1,4,0.00
2013-3-15,68.5,54.6,45.0,48.5,44.0,39.0,82,69,42,29.80,29.72,5,1,5,0.00
2013-3-16,65.7,52.6,41.5,46.4,37.2,28.5,80,58,28,29.75,29.67,5,1,5,0.00
2013-3-17,62.2,46.6,34.0,37.2,32.1,18.0,89,61,26,29.94,29.70,5,1,5,2.44
2013-3-18,63.1,49.3,36.9,41.6,33.5,23.7,78,58,24,29.94,29.88,5,1,5,0.00
2013-3-19,61.7,51.9,47.5,48.4,43.4,35.5,93,74,40,29.96,29.91,11,1,11,0.56
2013-3-20,49.6,48.1,46.6,49.4,47.6,45.4,100,98,93,29.92,29.86,15,3,15,1.48
2013-3-21,55.9,48.4,41.7,48.7,42.4,33.5,100,82,45,29.93,29.85,6,1,6,0.00
2013-3-22,54.9,43.4,32.7,33.9,24.6,16.4,75,51,23,29.95,29.88,7,2,7,0.00
2013-3-23,60.6,47.1,35.2,36.8,27.9,21.0,69,49,26,29.95,29.88,5,1,5,0.00
2013-3-24,66.6,49.8,38.1,41.5,35.0,30.7,82,60,30,29.93,29.83,6,1,6,0.00
2013-3-25,63.9,51.6,41.5,44.8,39.5,35.4,85,65,41,29.87,29.75,11,1,11,0.00
2013-3-26,60.1,50.4,40.8,46.8,41.8,35.7,88,73,49,29.82,29.77,4,1,4,0.00
2013-3-27,62.1,53.6,45.9,47.6,45.6,42.5,90,75,55,29.85,29.77,11,1,11,0.00
2013-3-28,57.4,52.2,47.3,48.1,45.5,43.8,90,78,63,29.97,29.85,9,1,9,0.00
2013-3-29,70.0,55.4,44.8,47.5,43.7,40.9,90,68,35,29.98,29.92,5,1,5,0.00
2013-3-30,70.7,57.8,47.8,53.1,47.4,41.6,94,70,46,29.95,29.86,7,1,7,0.14
2013-3-31,55.6,51.2,47.3,52.9,48.6,45.8,97,91,73,29.95,29.85,8,1,8,0.98
2013-4-1,53.6,49.4,46.0,51.9,47.8,45.1,100,94,83,30.00,29.89,5,0,5,0.13
2013-4-2,63.0,51.3,41.4,52.3,46.0,41.1,100,84,57,30.00,29.93,8,1,8,0.00
2013-4-3,66.7,54.0,43.2,53.4,48.3,41.8,100,82,56,30.00,29.86,5,1,5,0.00
2013-4-4,54.7,51.3,47.3,52.1,49.9,44.5,100,95,79,29.94,29.81,12,2,12,0.50
2013-4-5,56.7,52.1,48.2,50.7,49.0,47.0,100,89,71,29.99,29.93,8,1,8,0.01
2013-4-6,58.5,52.9,48.9,49.5,47.9,45.5,92,83,62,30.00,29.92,8,1,8,0.00
2013-4-7,56.1,51.5,45.3,49.9,46.3,42.6,90,83,73,29.96,29.60,10,2,10,0.01
2013-4-8,57.0,46.4,36.9,42.7,32.8,17.3,96,65,22,29.89,29.60,10,1,10,0.00
2013-4-9,66.7,51.0,36.1,37.6,31.8,12.3,83,54,12,30.01,29.89,6,1,6,0.00
2013-4-10,74.8,63.7,45.0,49.1,41.0,29.3,79,46,20,30.06,29.86,5,1,5,0.00
2013-4-11,69.3,59.5,50.7,44.7,35.3,24.8,72,43,20,29.87,29.73,8,1,8,0.14
2013-4-12,71.6,60.6,52.5,42.3,33.5,23.8,65,38,22,29.78,29.71,6,1,6,0.00
2013-4-13,66.4,56.1,46.4,45.7,38.0,32.4,80,53,29,29.76,29.69,5,1,5,0.00
2013-4-14,64.2,51.0,40.1,40.6,33.8,24.3,75,54,22,29.73,29.61,5,1,5,0.00
2013-4-15,51.3,43.9,35.2,38.0,30.8,19.3,88,63,29,29.74,29.62,5,1,5,0.00
2013-4-16,55.4,43.0,33.8,28.9,24.0,3.5,73,52,12,30.01,29.74,7,1,7,0.00
2013-4-17,63.5,48.6,34.7,30.2,21.0,3.9,67,39,10,30.10,30.00,7,1,7,0.00
2013-4-18,66.7,54.1,41.2,40.1,28.7,19.9,67,41,19,30.11,30.04,4,1,4,0.00
2013-4-19,70.0,57.0,44.4,45.5,40.0,34.6,78,56,28,30.09,29.95,5,1,5,0.00
2013-4-20,72.3,60.4,48.4,40.9,34.3,26.2,62,40,18,29.98,29.87,4,1,4,0.00
2013-4-21,77.5,62.5,47.5,44.5,35.7,25.8,68,41,16,29.93,29.86,4,1,4,0.00
2013-4-22,78.8,64.6,51.1,43.8,29.5,10.7,62,33,10,29.90,29.80,10,1,10,0.00
2013-4-23,76.5,63.9,54.9,37.7,14.1,-0.8,47,17,10,29.87,29.75,11,2,11,0.00
2013-4-24,79.2,67.7,54.5,34.6,17.4,2.7,46,17,10,29.82,29.73,7,2,7,0.00
2013-4-25,74.7,61.0,48.0,46.6,32.1,4.3,73,37,10,29.96,29.77,4,1,4,0.00
2013-4-26,75.2,61.1,47.1,53.6,46.8,38.9,80,62,37,30.06,29.96,4,1,4,0.00
2013-4-27,80.1,63.8,48.6,54.1,47.0,40.5,80,58,30,30.08,29.97,4,1,4,0.00
2013-4-28,80.6,65.9,52.0,54.9,45.7,32.9,79,53,18,29.97,29.81,4,1,4,0.00
2013-4-29,80.4,67.4,56.3,49.2,41.5,34.3,64,42,21,29.84,29.68,4,1,4,0.00
2013-4-30,78.1,65.4,54.1,44.5,20.8,4.9,56,23,10,29.83,29.67,6,2,6,0.00
2013-5-1,78.4,67.0,57.6,17.4,8.6,1.4,10,10,10,30.06,29.83,11,3,11,0.00
2013-5-2,83.8,69.5,57.0,39.0,17.7,2.8,49,16,10,30.08,29.99,5,1,6,0.00
2013-5-3,83.5,67.9,51.1,48.4,31.5,11.5,63,31,10,30.00,29.74,7,1,7,0.00
2013-5-4,81.9,71.5,63.9,24.9,16.5,6.8,19,12,10,29.76,29.51,10,2,10,0.00
2013-5-5,47.3,39.2,33.3,46.5,38.2,32.5,100,97,77,30.12,29.95,2,0,2,0.12
2013-5-6,56.3,50.5,34.0,52.3,46.5,30.8,94,86,65,30.12,29.93,4,0,4,0.02
2013-5-7,57.6,51.9,34.0,52.9,48.9,30.8,96,89,80,30.00,29.91,2,0,2,0.00
2013-5-8,63.3,56.9,52.2,56.2,53.1,50.4,95,87,74,30.04,29.93,1,0,1,0.00
2013-5-9,74.7,63.1,52.3,59.5,55.0,50.1,95,77,50,30.07,29.98,4,0,4,0.00
2013-5-10,81.7,67.4,54.3,62.6,57.4,51.6,93,73,44,30.09,30.03,3,1,3,0.00
2013-5-11,85.6,70.0,56.1,62.1,57.2,51.1,88,67,38,30.10,30.02,4,1,4,0.00
2013-5-12,88.5,72.4,60.6,60.0,43.7,19.3,81,44,10,30.10,29.99,6,2,6,0.00
2013-5-13,87.4,70.2,57.0,49.3,40.5,23.6,63,38,10,30.03,29.93,7,1,7,0.00
2013-5-14,85.8,70.1,55.2,52.6,45.4,33.6,66,45,16,29.93,29.85,6,1,6,0.00
2013-5-15,75.2,66.5,57.2,53.0,50.2,46.4,79,58,37,29.94,29.87,6,1,6,0.00
2013-5-16,63.9,58.4,55.0,54.8,51.9,48.5,94,79,60,29.91,29.84,6,1,6,0.01
2013-5-17,68.7,57.6,50.5,51.9,48.0,42.8,94,72,43,29.98,29.84,9,1,9,0.00
2013-5-18,72.1,58.7,43.9,47.5,41.9,36.0,87,58,28,30.04,29.97,5,1,5,0.00
2013-5-19,76.1,64.0,52.2,41.5,37.1,25.1,65,40,16,30.06,29.96,5,1,5,0.00
2013-5-20,81.7,62.9,34.0,43.9,29.7,16.3,89,33,10,30.03,29.91,8,1,8,0.01
2013-5-21,75.0,62.7,47.3,45.1,34.5,13.9,61,37,12,29.91,29.83,9,1,9,0.00
2013-5-22,62.2,51.2,39.4,29.8,20.7,5.4,56,33,11,29.89,29.81,4,1,4,0.00
2013-5-23,66.0,51.9,40.5,36.7,31.1,23.9,67,47,23,29.94,29.80,6,1,6,0.00
2013-5-24,72.0,53.5,40.5,40.7,34.3,26.3,73,53,19,29.93,29.90,7,1,7,0.00
2013-5-25,54.1,50.3,47.3,52.3,49.1,46.9,100,96,88,30.11,30.06,2,0,2,0.01
2013-5-26,55.2,50.3,47.1,52.9,49.2,46.3,100,96,90,30.06,29.88,5,0,5,0.08
2013-5-27,49.1,40.1,33.3,48.8,39.5,32.5,100,99,96,30.01,29.84,2,0,2,0.12
2013-5-28,66.4,58.7,34.0,55.1,50.9,30.8,95,76,57,30.02,29.85,5,1,5,0.01
2013-5-29,69.6,59.6,51.4,53.7,50.0,39.3,94,73,37,29.90,29.81,5,1,5,0.00
2013-5-30,75.9,60.5,47.3,52.0,37.6,13.4,91,53,10,29.98,29.88,4,1,4,0.00
2013-5-31,83.5,66.9,48.9,46.9,36.2,27.4,65,37,14,29.99,29.92,4,1,4,0.00
2013-6-1,89.8,74.6,63.1,50.0,37.7,22.3,51,30,10,29.93,29.81,4,1,4,0.00
2013-6-2,89.8,72.8,59.0,52.9,44.8,27.1,62,41,12,29.81,29.68,4,1,4,0.00
2013-6-3,92.1,77.3,65.7,48.9,36.3,24.0,51,26,10,29.81,29.71,7,1,7,0.00
2013-6-4,88.7,72.5,59.9,58.0,53.5,46.4,74,53,31,29.90,29.80,4,1,4,0.00
2013-6-5,87.1,72.3,59.0,62.7,58.8,54.2,86,65,38,29.93,29.84,4,1,4,0.00
2013-6-6,90.0,73.8,60.1,65.7,60.9,56.4,90,68,35,29.91,29.81,4,0,4,0.00
2013-6-7,97.2,77.6,60.6,63.0,52.2,32.5,86,49,11,29.89,29.81,3,1,3,0.00
2013-6-8,104.2,84.2,70.7,55.7,46.5,31.8,52,33,10,29.83,29.75,5,2,5,0.00
2013-6-9,91.2,78.4,65.8,59.8,54.6,47.3,71,45,33,29.81,29.74,2,1,2,0.00
2013-6-10,65.7,61.1,54.3,56.8,54.4,51.3,90,79,67,29.91,29.76,3,1,3,0.01
2013-6-11,79.3,63.4,51.8,55.6,48.3,35.0,92,62,23,29.95,29.88,6,1,6,0.00
2013-6-12,58.3,57.0,55.4,47.6,46.9,46.4,72,69,67,29.91,29.88,2,1,2,0.00
2013-6-13,76.8,67.2,50.4,47.6,31.0,14.0,77,31,10,30.03,29.92,4,1,4,0.00
2013-6-14,85.5,69.2,57.6,41.0,28.1,18.1,47,24,10,30.01,29.83,8,2,8,0.00
2013-6-15,84.6,68.3,53.6,48.0,34.6,17.3,62,34,10,29.93,29.82,7,1,7,0.00
2013-6-16,86.2,65.8,54.0,48.4,39.1,31.5,62,40,15,30.02,29.92,7,1,7,0.00
2013-6-17,82.6,74.1,56.5,52.1,41.7,29.3,73,34,15,30.00,29.91,6,1,6,0.00
2013-6-18,71.8,62.5,54.1,52.2,47.0,36.0,81,59,29,29.92,29.83,7,1,7,0.01
2013-6-19,69.3,58.5,48.2,49.2,42.8,27.9,89,61,22,29.98,29.88,5,1,5,0.00
2013-6-20,77.0,61.3,46.2,46.9,39.9,29.1,79,51,18,29.96,29.90,5,1,5,0.00
2013-6-21,80.1,65.8,52.0,47.7,37.9,19.2,66,41,11,29.95,29.89,4,1,4,0.00
2013-6-22,85.6,69.3,54.9,44.7,36.2,23.1,55,34,11,29.92,29.82,6,1,6,0.00
2013-6-23,69.6,61.2,34.0,56.9,46.5,30.8,89,60,43,30.15,29.75,5,1,5,0.01
2013-6-24,63.1,58.4,55.2,56.9,53.4,49.4,95,84,70,30.00,29.86,6,1,6,0.00
2013-6-25,62.4,58.9,55.0,62.3,58.5,53.6,100,98,95,30.09,29.97,8,2,8,2.05
2013-6-26,75.7,67.8,61.7,64.2,62.1,60.4,100,83,61,30.17,30.07,7,1,7,0.00
2013-6-27,87.1,71.9,59.9,66.0,61.4,55.9,100,74,38,30.23,30.17,4,1,4,0.00
2013-6-28,94.1,75.9,59.9,65.1,58.3,51.6,84,59,26,30.21,30.06,4,1,4,0.00
2013-6-29,97.0,78.4,63.9,66.2,57.0,39.2,82,54,16,30.11,27.06,57,1,57,0.00
2013-6-30,98.1,79.2,62.6,63.0,54.0,42.4,74,46,17,30.03,29.95,4,1,4,0.00
2013-7-1,99.0,86.6,69.6,67.6,56.4,32.6,77,42,10,30.06,29.97,3,0,3,0.00
2013-7-2,97.3,83.3,70.3,71.3,59.9,50.6,71,47,28,30.09,30.01,4,1,4,0.00
2013-7-3,99.7,84.1,71.8,66.2,59.1,49.7,65,46,20,30.09,29.87,3,1,3,0.00
2013-7-4,100.2,80.6,34.0,65.5,52.2,30.0,89,44,10,30.15,29.85,4,1,4,0.00
2013-7-5,91.4,77.3,66.9,59.8,52.7,36.7,71,46,15,29.90,29.81,5,1,5,0.00
2013-7-6,89.4,72.4,58.8,57.8,49.3,37.8,69,47,17,29.93,29.87,5,1,5,0.00
2013-7-7,91.9,73.5,58.5,54.4,42.9,27.1,65,38,12,30.00,29.92,5,0,5,0.00
2013-7-8,92.5,73.6,59.2,52.8,40.9,25.8,61,35,10,30.12,29.99,5,1,5,0.00
2013-7-9,93.6,74.9,60.6,56.4,39.7,23.3,70,34,10,30.18,30.11,5,1,5,0.00
2013-7-10,89.4,69.1,63.0,53.8,42.1,33.9,54,39,15,30.13,30.07,6,1,6,0.00
2013-7-11,90.0,77.4,61.9,49.5,30.4,19.9,55,21,10,30.04,29.99,8,1,8,0.00
2013-7-12,90.1,73.2,58.6,45.0,33.6,22.8,42,27,10,30.05,30.00,5,1,6,0.00
2013-7-13,91.2,79.5,65.5,47.5,31.4,21.3,46,20,10,30.10,30.05,5,1,5,0.00
2013-7-14,86.7,66.6,59.2,49.8,38.1,30.1,55,36,14,30.11,30.03,3,1,3,0.00
2013-7-15,88.3,67.4,59.7,54.2,46.3,42.2,62,48,21,30.04,29.92,3,0,3,0.00
2013-7-16,85.8,67.8,59.5,53.8,47.0,30.2,67,51,15,30.11,29.94,3,0,3,0.00
2013-7-17,88.7,74.5,54.1,49.1,40.0,24.0,62,34,10,30.19,30.11,4,0,4,0.00
2013-7-18,93.0,72.5,56.1,53.2,44.5,34.5,66,42,15,30.18,30.07,4,1,4,0.00
2013-7-19,95.2,74.2,59.9,59.6,49.6,40.2,67,46,15,30.09,29.97,4,1,4,0.00
2013-7-20,97.9,78.9,64.8,63.6,57.2,51.6,71,51,22,30.01,29.88,5,1,5,0.00
2013-7-21,98.1,80.5,66.4,66.3,59.3,50.3,77,53,21,29.99,29.91,4,1,4,0.00
2013-7-22,93.6,77.5,65.3,61.5,53.2,36.0,70,48,16,30.11,29.98,4,1,4,0.00
2013-7-23,91.4,77.0,66.0,60.4,51.3,45.9,62,43,22,30.13,30.06,5,1,5,0.00
2013-7-24,94.5,78.2,65.7,60.4,55.9,47.1,73,50,21,30.13,30.05,5,1,5,0.00
2013-7-25,96.6,79.5,65.1,64.1,58.4,51.9,77,52,23,30.12,30.05,4,1,4,0.00
2013-7-26,95.5,80.9,70.0,64.7,56.2,45.3,72,46,20,30.18,30.03,4,1,4,0.00
2013-7-27,96.3,79.4,66.4,61.8,54.2,47.6,67,45,20,30.09,29.92,4,1,4,0.00
2013-7-28,94.8,78.0,65.3,58.9,51.6,41.3,64,43,16,29.98,29.91,4,1,4,0.00
2013-7-29,86.7,72.8,61.5,55.8,47.1,25.3,66,44,13,30.11,29.94,6,1,6,0.00
2013-7-30,88.9,70.9,56.5,51.3,42.2,23.7,67,40,10,30.19,30.10,4,1,4,0.00
2013-7-31,89.2,72.7,60.6,51.9,39.7,19.9,58,34,10,30.16,30.06,7,1,7,0.00
2013-8-1,84.7,69.6,57.0,46.4,40.9,34.4,56,37,20,30.13,30.06,5,1,5,0.00
2013-8-2,86.4,69.6,54.5,50.5,41.7,31.9,65,41,15,30.09,30.00,4,1,4,0.00
2013-8-3,88.3,70.7,56.1,50.9,42.5,26.3,65,41,12,30.08,30.02,4,1,4,0.00
2013-8-4,90.7,72.1,56.8,49.4,40.3,25.7,58,36,10,30.10,30.03,5,1,5,0.00
2013-8-5,89.4,72.0,57.4,51.0,42.4,34.0,62,38,16,30.12,30.03,5,1,5,0.00
2013-8-6,88.9,71.3,56.5,50.9,42.4,25.4,62,40,11,30.10,30.05,5,1,5,0.00
2013-8-7,81.9,68.6,58.1,54.1,49.3,43.7,76,52,27,30.15,30.08,5,1,5,0.00
2013-8-8,81.9,65.8,52.5,52.4,47.1,38.1,79,55,22,30.12,30.04,4,1,4,0.00
2013-8-9,82.0,65.7,53.1,49.2,44.8,35.5,68,50,21,30.07,30.00,5,1,5,0.00
2013-8-10,83.3,67.3,55.0,50.5,45.7,37.8,70,49,25,30.13,30.07,6,1,6,0.00
2013-8-11,86.2,69.3,56.3,53.1,44.4,28.6,73,45,15,30.13,30.04,5,1,5,0.00
2013-8-12,85.6,69.8,56.5,55.0,43.3,33.0,68,42,17,30.11,30.05,4,1,4,0.00
2013-8-13,68.4,56.7,34.0,45.6,41.0,30.8,99,59,35,30.12,29.92,2,1,2,0.01
2013-8-14,92.3,77.2,61.0,50.1,32.6,20.8,56,23,10,29.93,29.85,7,1,7,0.00
2013-8-15,91.8,74.5,61.0,46.6,35.4,22.5,48,26,10,29.92,29.87,6,1,6,0.00
2013-8-16,92.7,75.7,62.6,48.9,38.2,24.5,49,30,10,29.96,29.91,5,1,5,0.00
2013-8-17,91.8,75.5,62.1,51.2,42.7,26.7,54,34,11,29.95,29.83,5,1,5,0.00
2013-8-18,94.5,77.9,63.5,60.3,51.5,44.7,61,42,21,29.88,29.81,3,1,3,0.00
2013-8-19,88.9,78.3,68.2,62.1,55.7,50.8,64,47,30,29.90,29.82,3,1,3,0.00
2013-8-20,88.5,77.8,34.0,73.0,56.8,30.8,92,51,30,30.08,29.76,6,1,6,0.00
2013-8-21,89.8,76.0,34.3,63.4,58.0,31.4,89,56,32,30.06,29.91,5,1,5,0.00
2013-8-22,87.4,73.7,63.0,56.9,47.7,31.6,68,44,15,29.98,29.91,7,1,7,0.00
2013-8-23,86.9,70.2,56.7,49.6,42.7,28.0,62,41,14,29.95,29.85,5,1,5,0.00
2013-8-24,85.1,70.4,58.6,50.4,44.2,39.4,61,41,22,29.91,29.85,7,1,7,0.00
2013-8-25,82.4,70.5,63.0,52.1,48.5,44.6,64,47,32,29.98,29.90,8,1,8,0.00
2013-8-26,83.1,68.9,59.2,54.4,47.4,34.0,77,50,18,30.03,29.95,6,1,6,0.00
2013-8-27,87.1,70.1,56.1,51.7,41.6,22.8,67,41,11,29.98,29.87,5,1,5,0.00
2013-8-28,87.4,72.2,60.3,50.6,41.8,34.1,60,36,17,29.98,29.88,7,1,7,0.00
2013-8-29,87.4,71.8,60.1,48.2,39.8,30.0,56,34,15,30.09,29.97,7,1,7,0.00
2013-8-30,88.5,72.6,34.0,40.9,33.6,21.7,90,31,10,30.08,29.85,4,1,4,6.48
2013-8-31,92.3,74.8,60.1,50.2,37.2,25.8,52,29,10,29.89,29.77,8,1,8,0.00
2013-9-1,84.0,73.8,67.8,61.6,46.7,34.5,73,41,17,29.84,29.77,4,1,4,0.01
2013-9-2,78.6,69.7,64.8,61.5,53.7,46.8,75,58,34,29.85,29.78,3,1,3,0.00
2013-9-3,80.4,70.0,61.9,58.1,52.7,48.2,71,55,39,29.88,29.81,6,1,6,0.00
2013-9-4,81.9,68.1,57.4,58.7,52.6,48.8,86,61,36,29.91,27.64,7,1,7,0.00
2013-9-5,78.4,66.4,56.8,52.3,45.8,35.1,75,51,23,29.90,29.81,8,1,8,0.00
2013-9-6,85.5,68.1,53.2,47.1,36.8,22.1,61,38,10,29.91,29.80,5,1,5,0.00
2013-9-7,89.1,73.4,62.1,50.1,37.2,24.8,53,30,10,29.84,29.76,8,1,8,0.00
2013-9-8,90.1,74.3,60.8,49.4,38.1,24.9,54,31,10,29.82,29.70,4,1,4,0.00
2013-9-9,93.2,77.4,63.9,50.9,36.2,25.6,49,26,10,29.76,29.59,5,1,5,0.00
2013-9-10,92.1,79.3,68.5,52.7,39.4,24.3,52,26,10,29.77,29.64,4,1,4,0.00
2013-9-11,70.2,67.8,65.5,51.9,51.1,50.3,58,55,52,29.80,29.77,2,0,2,0.00
2013-9-12,81.1,74.3,57.9,57.0,54.7,51.8,80,52,37,29.86,29.77,4,1,4,0.00
2013-9-13,84.4,72.1,61.0,60.3,56.8,53.0,76,60,40,29.82,29.66,3,0,3,0.00
2013-9-14,85.3,72.6,61.3,58.7,55.2,50.3,78,57,32,29.72,29.63,6,1,6,0.00
2013-9-15,79.5,68.9,60.6,51.7,41.8,20.3,67,42,11,29.76,29.65,6,1,6,0.00
2013-9-16,79.3,66.5,54.0,46.9,40.5,29.3,55,41,16,29.79,29.69,4,1,4,0.00
2013-9-17,70.7,64.3,55.9,52.1,48.9,45.7,72,58,46,29.79,29.65,5,1,5,0.00
2013-9-18,78.1,65.2,54.7,46.1,36.8,24.3,68,40,14,29.81,29.74,5,1,5,0.00
2013-9-19,81.0,68.6,59.9,38.7,32.2,21.2,40,27,11,29.78,29.69,4,1,4,0.00
2013-9-20,77.9,66.7,57.6,54.1,35.1,13.8,73,36,10,29.71,29.65,8,2,8,0.00
2013-9-21,61.9,55.2,49.8,55.1,52.5,48.7,97,91,73,29.75,29.64,9,1,9,0.01
2013-9-22,62.1,52.5,43.2,53.7,48.8,42.4,100,88,65,29.88,29.74,4,1,4,0.00
2013-9-23,71.4,58.8,48.0,57.1,51.7,46.5,100,79,52,29.90,29.83,4,1,4,0.00
2013-9-24,66.6,59.7,50.0,54.7,51.8,47.6,92,76,58,29.84,29.71,8,1,8,0.00
2013-9-25,59.5,50.1,41.9,51.1,41.3,30.5,100,75,34,29.75,29.68,5,1,5,0.00
2013-9-26,62.4,51.2,40.8,44.2,37.4,34.4,83,61,35,29.89,29.70,5,1,5,0.84
2013-9-27,67.8,55.0,43.3,43.5,37.5,32.3,74,55,27,29.96,29.88,4,1,4,0.00
2013-9-28,70.2,58.4,47.3,47.6,38.7,27.4,76,51,21,29.97,29.87,7,1,7,0.00
2013-9-29,63.1,59.9,57.7,55.5,48.8,38.8,83,67,47,29.94,29.88,9,2,9,0.00
2013-9-30,62.8,59.3,56.3,59.4,56.5,53.4,96,90,83,29.91,29.83,8,2,8,0.08
2013-10-1,58.5,55.9,53.8,58.3,55.3,53.0,100,98,96,29.87,29.82,2,0,2,0.00
2013-10-2,66.6,55.8,47.8,49.9,41.5,29.5,89,62,25,29.85,29.78,4,1,4,0.00
2013-10-3,63.3,56.1,41.2,36.3,26.8,13.1,69,35,14,29.99,29.85,8,2,8,0.00
2013-10-4,72.1,59.7,51.4,27.0,17.8,6.5,38,21,10,30.05,29.97,12,2,12,0.00
2013-10-5,73.8,61.5,50.9,36.0,23.5,10.6,54,26,10,30.10,30.03,7,1,7,0.00
2013-10-6,74.5,58.6,48.6,43.5,32.9,18.2,62,41,12,30.04,29.92,4,1,4,0.00
2013-10-7,72.0,57.8,48.0,40.9,27.9,10.8,55,36,10,29.92,29.79,4,0,4,0.00
2013-10-8,70.7,56.2,47.8,43.9,33.8,26.5,56,44,21,29.80,29.55,5,1,5,0.00
2013-10-9,64.8,56.2,46.8,36.8,32.9,28.8,59,42,26,29.65,29.47,7,1,7,0.00
2013-10-10,66.7,52.8,46.2,45.1,40.6,34.8,77,64,50,29.87,29.64,6,1,6,0.00
2013-10-11,64.6,52.6,42.4,45.6,40.9,38.3,86,67,39,29.93,29.85,5,0,5,0.00
2013-10-12,64.6,52.4,42.6,48.0,41.6,36.3,93,69,41,29.87,29.75,5,1,5,0.09
2013-10-13,64.8,52.7,42.1,46.6,41.4,32.6,96,69,39,29.95,29.79,6,2,6,0.04
2013-10-14,68.4,58.7,50.2,40.1,34.2,22.6,62,41,23,29.99,29.91,6,2,6,0.00
2013-10-15,70.9,61.6,55.2,29.2,23.1,10.5,35,24,10,29.97,29.90,14,2,14,0.01
2013-10-16,71.1,59.0,50.5,39.0,29.5,18.9,57,34,19,30.00,29.90,6,1,6,0.00
2013-10-17,71.1,56.4,40.5,38.0,32.4,25.4,61,43,19,29.96,29.88,6,1,6,0.00
2013-10-18,73.4,61.2,52.0,39.4,34.0,26.7,59,38,19,29.95,29.88,5,1,5,0.00
2013-10-19,75.0,59.3,48.9,41.6,35.8,28.2,61,45,19,29.97,29.92,5,2,5,0.00
2013-10-20,76.8,60.4,49.6,42.9,35.5,26.5,59,43,17,29.94,29.81,4,1,4,0.00
2013-10-21,60.8,52.7,34.0,41.0,34.3,27.6,89,50,45,29.98,29.83,3,1,3,0.00
2013-10-22,76.6,60.5,50.2,39.6,32.3,15.4,53,38,11,29.97,29.89,5,1,5,0.00
2013-10-23,77.0,59.9,48.4,35.7,24.1,13.6,40,28,10,29.91,29.83,4,1,4,0.00
2013-10-24,73.8,58.5,48.9,38.9,30.8,17.8,54,37,13,29.98,29.87,4,1,4,0.00
2013-10-25,72.9,57.5,47.5,41.4,32.9,25.0,57,41,20,30.07,29.98,4,1,4,0.00
2013-10-26,73.6,58.0,34.3,40.9,34.8,26.9,89,44,20,30.07,29.90,4,1,4,0.00
2013-10-27,68.2,54.4,41.7,42.7,34.7,28.6,90,50,26,29.91,29.45,8,2,8,0.01
2013-10-28,48.7,43.6,38.3,45.3,41.0,32.9,96,91,83,29.69,29.44,4,1,4,0.00
2013-10-29,48.9,44.8,39.0,47.1,43.7,37.8,100,96,93,29.88,29.69,2,0,2,0.00
2013-10-30,55.2,44.0,36.3,48.4,41.1,36.1,100,90,67,29.97,29.88,4,1,4,0.00
2013-10-31,42.8,41.0,40.6,40.2,39.8,39.2,96,95,94,29.97,29.95,2,2,2,0.00
2013-11-1,66.2,52.9,43.9,48.6,43.3,37.3,93,73,41,30.02,29.91,2,1,2,0.00
2013-11-2,64.2,52.0,43.7,43.8,37.7,33.8,75,59,40,29.91,29.76,3,1,3,0.00
2013-11-3,57.7,48.2,41.4,36.8,23.9,8.6,68,41,14,29.86,29.74,6,1,6,0.00
2013-11-4,61.9,49.8,42.4,29.6,22.8,10.2,53,36,15,29.96,29.74,9,2,9,0.00
2013-11-5,63.3,50.2,40.1,36.7,30.9,24.4,69,50,24,30.79,29.95,54,1,54,0.00
2013-11-6,62.2,51.6,43.5,43.6,39.1,32.3,76,63,42,30.11,30.04,4,1,4,0.00
2013-11-7,68.4,55.0,47.1,41.5,35.6,29.9,67,50,26,30.05,29.93,7,1,7,0.00
2013-11-8,64.9,51.5,43.9,42.3,35.8,27.7,75,57,33,29.96,29.83,5,1,5,0.00
2013-11-9,67.3,53.4,45.3,47.4,41.4,35.9,81,66,39,29.92,29.86,4,1,4,0.00
2013-11-10,67.8,54.2,44.6,41.3,35.0,28.1,69,51,25,29.97,29.91,4,1,4,0.00
2013-11-11,68.0,54.5,46.4,37.6,27.5,19.6,53,36,16,30.04,29.94,4,1,4,0.00
2013-11-12,66.0,57.0,49.6,44.2,36.2,26.7,65,46,33,30.12,30.02,3,0,3,0.00
2013-11-13,71.2,59.9,47.3,45.1,38.5,29.6,72,47,27,30.10,29.96,4,1,4,0.00
2013-11-14,65.1,54.4,46.6,42.6,37.0,31.0,75,53,33,29.97,29.69,3,1,3,0.00
2013-11-15,62.1,50.5,40.1,39.1,27.2,11.5,77,44,14,29.69,26.68,8,2,8,0.00
2013-11-16,56.5,45.8,41.9,37.1,31.5,24.6,72,58,40,29.77,29.59,4,1,4,0.00
2013-11-17,57.0,41.9,36.5,39.4,34.5,30.9,83,75,48,29.92,29.76,4,1,4,0.00
2013-11-18,59.2,46.7,39.4,43.1,39.1,32.9,85,75,60,29.96,29.88,5,1,5,0.00
2013-11-19,48.2,25.3,-39.6,45.7,23.7,-40.2,97,94,81,29.91,29.87,3,0,3,0.00
2013-11-20,34.7,26.7,0.0,99.9,46.5,30.8,89,70,6,30.12,30.10,45,5,45,0.00
2013-11-21,132.8,30.0,-32.3,99.9,22.9,-54.6,100,77,33,30.11,29.91,10,3,10,0.00
2013-11-25,42.1,39.4,39.0,36.7,35.1,34.6,85,84,84,29.91,29.91,2,2,2,0.00
2013-11-26,56.7,44.7,38.3,43.8,37.0,33.0,85,76,51,29.91,29.71,4,1,4,0.00
2013-11-27,59.9,47.7,41.4,45.2,37.9,33.8,80,70,38,29.71,29.55,5,1,5,0.00
2013-11-28,60.4,45.4,42.8,44.6,36.4,34.6,78,71,42,29.74,29.56,3,2,3,0.00
2013-11-29,63.1,47.8,40.1,42.4,37.7,33.5,79,69,45,29.86,29.74,4,1,4,0.00
2013-11-30,59.2,47.9,41.7,44.4,39.6,34.9,82,74,50,29.91,29.83,4,1,4,0.00
2013-12-1,60.8,48.3,40.8,47.2,40.8,33.9,87,76,54,29.96,29.87,3,1,3,0.00
2013-12-2,56.1,47.8,40.8,45.6,41.3,35.5,90,79,61,29.87,29.52,4,1,4,0.00
2013-12-3,50.0,42.0,29.7,45.6,33.6,15.5,93,74,34,29.54,29.42,7,1,7,0.00
2013-12-4,43.3,32.6,26.1,17.0,12.8,5.7,58,44,24,29.66,29.54,6,1,6,0.00
2013-12-5,40.5,30.8,26.6,15.4,11.7,2.7,57,45,24,29.71,29.64,5,1,5,0.00
2013-12-6,39.2,31.0,25.3,29.4,19.4,11.5,90,63,44,29.74,29.47,8,1,8,0.00
2013-12-7,32.2,29.5,23.0,30.0,26.0,19.2,92,86,77,29.78,29.46,0,0,0,0.00
2013-12-8,34.7,25.2,18.3,28.1,20.9,14.6,90,84,70,29.89,29.77,1,0,2,0.00
2013-12-9,40.1,29.3,21.0,29.9,23.5,16.6,87,79,56,30.00,29.88,5,1,5,0.00
2013-12-10,46.4,35.3,25.3,30.6,27.2,19.7,82,73,49,29.99,29.79,3,1,3,0.00
2013-12-11,50.7,37.6,31.6,32.6,28.8,25.7,83,72,39,29.85,29.80,5,1,5,0.00
2013-12-12,52.0,40.7,34.0,32.1,28.5,22.7,77,63,32,29.88,29.78,2,1,3,0.00
2013-12-13,50.7,40.7,36.9,34.1,31.8,29.3,77,71,51,29.93,29.87,4,1,4,0.00
2013-12-14,54.5,39.4,35.6,39.2,32.0,26.3,83,75,49,30.01,29.93,3,2,3,0.00
2013-12-15,58.5,41.4,35.8,41.5,34.1,27.4,81,76,39,30.01,29.89,3,2,3,0.00
2013-12-16,42.8,40.4,39.9,35.2,33.6,31.8,79,76,72,29.91,29.87,2,2,2,0.00
2013-12-17,63.9,50.0,44.1,43.9,34.5,30.1,70,56,30,29.85,29.72,2,1,2,0.00
2013-12-18,55.4,47.9,38.8,46.0,38.1,29.1,81,69,57,29.72,29.37,2,0,2,0.00
2013-12-19,51.3,42.7,36.9,35.5,21.6,5.9,83,47,22,29.59,29.33,8,2,8,0.00
2013-12-20,52.7,43.2,31.6,29.7,19.5,1.5,68,42,14,29.64,29.57,4,0,4,0.00
2013-12-21,40.3,39.5,38.8,32.9,31.8,29.9,78,74,69,29.62,29.60,2,0,2,0.00
2013-12-22,45.1,44.2,43.3,36.7,35.7,34.9,72,72,71,29.94,29.93,2,2,2,0.00
2013-12-23,56.8,47.2,38.8,42.2,38.5,33.3,85,73,52,30.03,29.92,3,1,3,0.00
2013-12-24,44.6,42.5,42.3,37.6,36.8,36.2,81,80,79,29.97,29.95,3,2,3,0.00
2013-12-25,61.7,49.1,43.3,39.6,33.0,20.7,68,55,26,29.95,29.87,4,1,4,0.00
2013-12-26,61.5,47.5,39.9,39.2,32.3,24.7,74,57,31,29.92,29.85,3,1,3,0.00
2013-12-27,57.4,45.5,34.2,43.6,32.4,22.8,89,60,40,29.93,29.78,2,1,2,81.52
2013-12-28,60.1,45.5,35.2,33.9,24.9,16.2,65,47,21,29.93,29.87,8,1,8,0.00
2013-12-29,61.0,50.9,41.7,34.6,17.4,-4.2,60,31,10,29.98,29.90,11,2,11,0.00
2013-12-30,59.5,47.8,42.1,35.6,28.1,20.5,61,47,23,30.03,29.97,4,0,4,0.00
2013-12-31,58.3,46.6,41.4,38.1,30.2,24.8,67,54,30,30.03,29.95,4,1,4,0.00
2014-1-1,61.9,48.8,42.1,42.1,35.9,28.2,78,62,38,29.98,29.91,4,1,4,0.00
2014-1-2,61.2,48.5,41.0,42.6,37.2,32.2,77,66,39,29.97,29.86,4,1,4,0.00